KQ4WWD Weather Reports


time (UTC)temp
C
wind
direction
speed
KPH
gust
KPH
rain 1hr
cm
rain 24hr
cm
rain mn
cm
humidity
%
barometer
mb
20260510193827 32 266 8.0 14.5 0.00 0.00 0.00 59 1014.5
20260510193322 32 287 12.9 14.5 0.00 0.00 0.00 59 1014.8
20260510192818 32 247 14.5 22.5 0.00 0.00 0.00 58 1014.7
20260510192313 32 270 8.0 9.7 0.00 0.00 0.00 56 1014.8
20260510191810 32 307 9.7 14.5 0.00 0.00 0.00 56 1014.7
20260510191305 33 228 8.0 11.3 0.00 0.00 0.00 55 1014.8
20260510190804 32 252 6.4 9.7 0.00 0.00 0.00 56 1014.6
20260510190301 33 222 8.0 9.7 0.00 0.00 0.00 56 1014.7
20260510185757 32 276 14.5 17.7 0.00 0.00 0.00 55 1014.6
20260510185255 33 277 9.7 12.9 0.00 0.00 0.00 56 1014.5
20260510184752 33 261 12.9 14.5 0.00 0.00 0.00 56 1014.6
20260510184248 33 317 11.3 16.1 0.00 0.00 0.00 56 1014.9
20260510183743 33 280 11.3 14.5 0.00 0.00 0.00 58 1014.7
20260510183238 32 253 14.5 20.9 0.00 0.00 0.00 58 1014.9
20260510182735 33 328 17.7 20.9 0.00 0.00 0.00 56 1014.8
20260510182230 32 299 8.0 12.9 0.00 0.00 0.00 59 1014.8
20260510181727 33 32 14.5 17.7 0.00 0.00 0.00 58 1014.6
20260510181225 33 254 9.7 12.9 0.00 0.00 0.00 57 1014.7
20260510180720 33 274 8.0 9.7 0.00 0.00 0.00 55 1014.6
20260510180218 32 294 6.4 8.0 0.00 0.00 0.00 56 1014.6
20260510175714 32 341 6.4 11.3 0.00 0.00 0.00 57 1014.6
20260510175210 33 270 8.0 11.3 0.00 0.00 0.00 58 1014.7
20260510174707 33 231 4.8 4.8 0.00 0.00 0.00 59 1014.9
20260510174205 33 277 4.8 8.0 0.00 0.00 0.00 59 1015.0
20260510173700 33 263 6.4 8.0 0.00 0.00 0.00 59 1015.1
20260510173157 33 257 8.0 11.3 0.00 0.00 0.00 58 1015.0
20260510172652 33 213 12.9 16.1 0.00 0.00 0.00 59 1014.9
20260510172149 33 206 11.3 12.9 0.00 0.00 0.00 61 1015.1
20260510171645 32 319 3.2 4.8 0.00 0.00 0.00 62 1015.2
20260510171143 32 207 3.2 4.8 0.00 0.00 0.00 64 1015.4
20260510170639 32 237 11.3 12.9 0.00 0.00 0.00 65 1015.4
20260510170136 32 265 4.8 4.8 0.00 0.00 0.00 64 1015.6
20260510165631 31 246 3.2 3.2 0.00 0.00 0.00 66 1015.6
20260510165127 32 284 8.0 9.7 0.00 0.00 0.00 64 1015.9
20260510164625 33 195 8.0 11.3 0.00 0.00 0.00 61 1015.7
20260510164122 32 192 3.2 4.8 0.00 0.00 0.00 63 1015.8
20260510163617 31 200 1.6 1.6 0.00 0.00 0.00 67 1016.0
20260510163114 32 226 0.0 1.6 0.00 0.00 0.00 66 1016.1
20260510162608 32 285 8.0 9.7 0.00 0.00 0.00 65 1015.9
20260510162105 32 333 0.0 0.0 0.00 0.00 0.00 65 1016.2
20260510161600 32 183 4.8 8.0 0.00 0.00 0.00 64 1016.1
20260510161058 31 231 6.4 8.0 0.00 0.00 0.00 67 1016.3
20260510160555 31 214 8.0 11.3 0.00 0.00 0.00 67 1016.2
20260510160054 31 281 8.0 9.7 0.00 0.00 0.00 67 1016.3
20260510155551 31 264 4.8 4.8 0.00 0.00 0.00 68 1016.2
20260510155048 30 280 0.0 1.6 0.00 0.00 0.00 70 1016.3
20260510154543 31 252 6.4 9.7 0.00 0.00 0.00 70 1016.4
20260510154038 31 274 8.0 11.3 0.00 0.00 0.00 70 1016.1
20260510153533 31 202 1.6 1.6 0.00 0.00 0.00 70 1016.1
20260510153031 30 207 6.4 8.0 0.00 0.00 0.00 72 1016.4
20260510152528 31 297 4.8 4.8 0.00 0.00 0.00 71 1016.1
20260510152024 30 155 0.0 0.0 0.00 0.00 0.00 71 1016.0
20260510151521 30 236 1.6 3.2 0.00 0.00 0.00 73 1016.1
20260510151018 30 242 3.2 3.2 0.00 0.00 0.00 72 1016.0
20260510150513 30 238 8.0 9.7 0.00 0.00 0.00 72 1016.5
20260510150010 30 227 11.3 14.5 0.00 0.00 0.00 72 1016.5
20260510145506 30 295 1.6 3.2 0.00 0.00 0.00 74 1016.3
20260510145002 29 264 0.0 1.6 0.00 0.00 0.00 73 1016.0
20260510144459 30 212 4.8 4.8 0.00 0.00 0.00 73 1016.1
20260510143955 30 220 8.0 11.3 0.00 0.00 0.00 72 1015.9
20260510143451 29 233 8.0 9.7 0.00 0.00 0.00 74 1016.0
20260510142948 30 234 1.6 3.2 0.00 0.00 0.00 72 1016.0
20260510142445 30 227 6.4 9.7 0.00 0.00 0.00 71 1016.2
20260510141941 30 216 1.6 3.2 0.00 0.00 0.00 72 1015.9
20260510141438 29 217 6.4 8.0 0.00 0.00 0.00 74 1015.9
20260510140935 29 225 4.8 11.3 0.00 0.00 0.00 74 1015.8
20260510140431 28 128 3.2 4.8 0.00 0.00 0.00 74 1016.0
20260510135930 28 246 1.6 3.2 0.00 0.00 0.00 76 1016.0
20260510135426 28 246 8.0 12.9 0.00 0.00 0.00 76 1016.1
20260510134924 28 258 4.8 4.8 0.00 0.00 0.00 76 1015.8
20260510134420 28 310 3.2 4.8 0.00 0.00 0.00 78 1015.6
20260510133917 28 225 0.0 0.0 0.00 0.00 0.00 78 1015.9
20260510133413 28 209 4.8 11.3 0.00 0.00 0.00 77 1015.9
20260510132908 27 225 6.4 11.3 0.00 0.00 0.00 79 1015.7
20260510132407 27 204 0.0 0.0 0.00 0.00 0.00 79 1015.5
20260510131903 27 229 1.6 4.8 0.00 0.00 0.00 82 1015.7
20260510131401 27 162 0.0 1.6 0.00 0.00 0.00 83 1015.8
20260510130857 26 233 4.8 4.8 0.00 0.00 0.00 84 1016.0
20260510130354 26 243 1.6 1.6 0.00 0.00 0.00 85 1015.7
20260510125851 26 196 0.0 1.6 0.00 0.00 0.00 86 1015.8
20260510125347 25 166 1.6 1.6 0.00 0.00 0.00 87 1015.8
20260510124844 25 222 0.0 0.0 0.00 0.00 0.00 87 1015.9
20260510124341 25 191 0.0 0.0 0.00 0.00 0.00 87 1015.6
20260510123837 25 30 0.0 0.0 0.00 0.00 0.00 88 1015.5
20260510123332 25 234 3.2 3.2 0.00 0.00 0.00 88 1015.8
20260510122829 25 194 1.6 3.2 0.00 0.00 0.00 88 1015.6
20260510122325 25 213 0.0 1.6 0.00 0.00 0.00 88 1015.6
20260510121821 25 213 1.6 1.6 0.00 0.00 0.00 88 1015.3
20260510121319 24 237 0.0 1.6 0.00 0.00 0.00 89 1015.3
20260510120816 23 187 0.0 0.0 0.00 0.00 0.00 90 1015.3
20260510120313 23 237 0.0 0.0 0.00 0.00 0.00 89 1015.4
20260510115808 23 225 0.0 0.0 0.00 0.00 0.00 90 1015.2
20260510115307 23 232 0.0 0.0 0.00 0.00 0.00 90 1015.2
20260510114802 23 147 0.0 0.0 0.00 0.00 0.00 91 1015.0
20260510114259 23 234 0.0 0.0 0.00 0.00 0.00 91 1015.0
20260510113759 23 215 0.0 0.0 0.00 0.00 0.00 91 1014.9
20260510113257 23 227 0.0 0.0 0.00 0.00 0.00 91 1014.7
20260510112753 23 251 0.0 0.0 0.00 0.00 0.00 92 1014.5
20260510112250 23 254 0.0 0.0 0.00 0.00 0.00 92 1014.5
20260510111746 22 227 0.0 0.0 0.00 0.00 0.00 92 1014.5
20260510111243 22 196 0.0 0.0 0.00 0.00 0.00 92 1014.1
20260510110742 22 196 0.0 0.0 0.00 0.00 0.00 92 1014.0
20260510110241 22 197 0.0 0.0 0.00 0.00 0.00 92 1013.8
20260510105740 22 198 0.0 0.0 0.00 0.00 0.00 92 1014.0
20260510105235 22 198 0.0 0.0 0.00 0.00 0.00 92 1014.0
20260510104732 22 198 0.0 0.0 0.00 0.00 0.00 92 1013.7
20260510104230 23 201 0.0 0.0 0.00 0.00 0.00 92 1013.9
20260510103726 23 299 0.0 0.0 0.00 0.00 0.00 92 1013.8
20260510103223 23 260 0.0 0.0 0.00 0.00 0.00 92 1014.0
20260510102723 23 214 0.0 0.0 0.00 0.00 0.00 92 1013.8
20260510102218 22 189 0.0 0.0 0.00 0.00 0.00 92 1013.9
20260510101716 22 191 0.0 0.0 0.00 0.00 0.00 92 1013.5
20260510101215 22 235 1.6 1.6 0.00 0.00 0.00 92 1013.5
20260510100710 23 181 4.8 4.8 0.00 0.00 0.00 92 1013.5
20260510100209 23 180 3.2 4.8 0.00 0.00 0.00 92 1013.2
20260510095704 23 176 0.0 1.6 0.00 0.00 0.00 92 1013.1
20260510095159 23 184 4.8 8.0 0.00 0.00 0.00 92 1013.2
20260510094657 22 194 1.6 1.6 0.00 0.00 0.00 92 1013.2
20260510094154 23 200 0.0 0.0 0.00 0.00 0.00 92 1013.4
20260510093650 23 178 0.0 1.6 0.00 0.00 0.00 92 1013.1
20260510093147 23 173 3.2 4.8 0.00 0.00 0.00 92 1013.2
20260510092643 23 182 1.6 1.6 0.00 0.00 0.00 92 1013.0
20260510092139 23 212 1.6 3.2 0.00 0.00 0.00 92 1013.0
20260510091635 23 173 3.2 3.2 0.00 0.00 0.00 91 1013.1
20260510091131 23 219 0.0 0.0 0.00 0.00 0.00 91 1013.2
20260510090628 23 206 3.2 4.8 0.00 0.00 0.00 92 1012.9
20260510090125 23 173 3.2 3.2 0.00 0.00 0.00 92 1013.0
20260510085620 22 166 3.2 3.2 0.00 0.00 0.00 92 1013.0
20260510085115 22 163 4.8 8.0 0.00 0.00 0.00 92 1012.7
20260510084612 22 177 3.2 4.8 0.00 0.00 0.00 92 1012.9
20260510084109 22 168 4.8 4.8 0.00 0.00 0.00 92 1012.4
20260510083605 22 173 1.6 8.0 0.00 0.00 0.00 92 1012.6
20260510083101 22 161 6.4 8.0 0.00 0.00 0.00 92 1012.7
20260510082558 22 164 6.4 8.0 0.00 0.00 0.00 92 1012.3
20260510082054 23 149 1.6 1.6 0.00 0.00 0.00 92 1012.7
20260510081549 23 175 3.2 3.2 0.00 0.00 0.00 92 1012.7
20260510081045 23 174 0.0 0.0 0.00 0.00 0.00 92 1013.0
20260510080544 23 175 0.0 1.6 0.00 0.00 0.00 92 1012.7
20260510080041 23 200 3.2 4.8 0.00 0.00 0.00 92 1012.7
20260510075538 23 204 4.8 8.0 0.00 0.00 0.00 91 1012.7
20260510075035 23 199 1.6 3.2 0.00 0.00 0.00 91 1012.7
20260510074533 23 121 4.8 8.0 0.00 0.00 0.00 91 1012.6
20260510074028 23 188 1.6 3.2 0.00 0.00 0.00 91 1013.0
20260510073524 23 167 3.2 3.2 0.00 0.00 0.00 91 1012.7
20260510073021 23 114 1.6 3.2 0.00 0.00 0.00 91 1013.0
20260510072518 23 168 3.2 3.2 0.00 0.00 0.00 91 1013.0
20260510072014 23 173 6.4 9.7 0.00 0.00 0.00 91 1013.2
20260510071510 23 155 1.6 3.2 0.00 0.00 0.00 91 1012.9
20260510071009 23 197 4.8 4.8 0.00 0.00 0.00 91 1013.0
20260510070505 23 177 0.0 0.0 0.00 0.00 0.00 91 1012.9
20260510070001 23 192 0.0 0.0 0.00 0.00 0.00 91 1013.0
20260510065458 23 187 3.2 3.2 0.00 0.00 0.00 91 1012.9
20260510064954 23 174 3.2 3.2 0.00 0.00 0.00 91 1013.0
20260510064451 23 162 1.6 4.8 0.00 0.00 0.00 92 1013.3
20260510063948 23 153 0.0 0.0 0.00 0.00 0.00 92 1013.0
20260510063444 23 145 1.6 1.6 0.00 0.00 0.00 92 1013.1
20260510062942 23 152 1.6 1.6 0.00 0.00 0.00 92 1013.5
20260510062442 23 178 0.0 0.0 0.00 0.00 0.00 92 1013.5
20260510061938 23 229 0.0 0.0 0.00 0.00 0.00 92 1013.8
20260510061435 23 151 0.0 0.0 0.00 0.00 0.00 92 1013.7
20260510060931 23 170 0.0 0.0 0.00 0.00 0.00 92 1013.8
20260510060428 23 161 0.0 0.0 0.00 0.00 0.00 91 1013.7
20260510055924 23 164 1.6 3.2 0.00 0.00 0.00 91 1013.6
20260510055420 23 148 0.0 0.0 0.00 0.00 0.00 91 1013.9
20260510054919 23 174 0.0 1.6 0.00 0.00 0.00 91 1014.1
20260510054414 23 177 0.0 0.0 0.00 0.00 0.00 91 1014.0
20260510053909 23 136 0.0 0.0 0.00 0.00 0.00 91 1014.2
20260510053405 23 140 0.0 0.0 0.00 0.00 0.00 91 1014.1
20260510052901 23 142 0.0 0.0 0.00 0.00 0.00 91 1014.4
20260510052357 23 142 0.0 0.0 0.00 0.00 0.00 91 1014.3
20260510051854 23 114 0.0 0.0 0.00 0.00 0.00 90 1014.4
20260510051350 23 155 0.0 0.0 0.00 0.00 0.00 90 1014.3
20260510050847 23 170 0.0 0.0 0.00 0.00 0.00 90 1014.4
20260510050344 23 141 0.0 0.0 0.00 0.00 0.00 90 1014.4
20260510045841 23 150 0.0 0.0 0.00 0.00 0.00 90 1014.5
20260510045337 23 153 0.0 1.6 0.00 0.00 0.00 90 1014.5
20260510044835 23 139 0.0 0.0 0.00 0.00 0.00 89 1014.4
20260510044331 23 163 0.0 0.0 0.00 0.00 0.00 89 1014.5
20260510043828 23 166 0.0 0.0 0.00 0.00 0.00 89 1014.6
20260510043324 23 216 0.0 0.0 0.00 0.00 0.00 89 1014.8
20260510042822 23 158 0.0 0.0 0.00 0.00 0.00 89 1014.9
20260510042317 23 155 0.0 0.0 0.00 0.00 0.00 88 1014.6
20260510041814 23 156 1.6 1.6 0.00 0.00 0.00 89 1014.9
20260510041311 23 164 0.0 0.0 0.00 0.00 0.00 89 1014.7
20260510040808 23 136 0.0 0.0 0.00 0.00 0.00 89 1014.5
20260510040305 23 134 0.0 0.0 0.00 0.00 0.00 89 1014.7
20260510035800 23 135 0.0 0.0 0.00 0.00 0.00 89 1014.7
20260510035256 23 307 0.0 0.0 0.00 0.00 0.00 89 1014.8
20260510034752 23 307 0.0 0.0 0.00 0.00 0.00 89 1014.6
20260510034250 23 307 0.0 0.0 0.00 0.00 0.00 89 1014.6
20260510033746 24 307 0.0 0.0 0.00 0.00 0.00 88 1015.0
20260510033244 24 307 0.0 0.0 0.00 0.00 0.00 87 1014.7
20260510032740 24 298 0.0 0.0 0.00 0.00 0.00 86 1015.1
20260510032236 24 222 0.0 0.0 0.00 0.00 0.00 86 1014.9
20260510031732 23 233 0.0 0.0 0.00 0.00 0.00 86 1014.6
20260510031228 23 143 0.0 0.0 0.00 0.00 0.00 87 1014.5
20260510030727 23 143 0.0 0.0 0.00 0.00 0.00 87 1014.8
20260510030225 23 143 0.0 0.0 0.00 0.00 0.00 87 1014.8
20260510025722 23 143 0.0 0.0 0.00 0.00 0.00 87 1014.6
20260510025219 23 143 0.0 0.0 0.00 0.00 0.00 87 1014.6
20260510024716 23 143 0.0 0.0 0.00 0.00 0.00 87 1014.5
20260510024212 23 144 0.0 0.0 0.00 0.00 0.00 86 1014.5
20260510023708 23 133 0.0 0.0 0.00 0.00 0.00 86 1014.3
20260510023206 23 123 0.0 0.0 0.00 0.00 0.00 86 1014.5
20260510022702 23 160 0.0 0.0 0.00 0.00 0.00 86 1014.1
20260510022156 23 123 0.0 0.0 0.00 0.00 0.00 86 1014.2
20260510021652 23 122 0.0 0.0 0.00 0.00 0.00 86 1014.2
20260510021150 23 140 0.0 0.0 0.00 0.00 0.00 86 1014.1
20260510020650 23 126 0.0 0.0 0.00 0.00 0.00 86 1014.3
20260510020145 24 89 0.0 0.0 0.00 0.00 0.00 85 1014.0
20260510015641 24 89 0.0 0.0 0.00 0.00 0.00 85 1014.1
20260510015138 24 82 0.0 0.0 0.00 0.00 0.00 85 1014.1
20260510014638 24 89 0.0 0.0 0.00 0.00 0.00 85 1014.0
20260510014136 24 106 0.0 0.0 0.00 0.00 0.00 84 1014.0
20260510013637 24 63 0.0 0.0 0.00 0.00 0.00 84 1014.1
20260510013132 24 75 0.0 0.0 0.00 0.00 0.00 84 1013.9
20260510012632 24 67 0.0 0.0 0.00 0.00 0.00 84 1013.8
20260510012129 24 71 0.0 0.0 0.00 0.00 0.00 84 1013.8
20260510011629 25 47 0.0 0.0 0.00 0.00 0.00 83 1013.8
20260510011125 25 41 0.0 0.0 0.00 0.00 0.00 83 1013.7
20260510010621 25 69 0.0 0.0 0.00 0.00 0.00 82 1013.7
20260510010118 25 333 0.0 1.6 0.00 0.00 0.00 83 1013.8
20260510005613 25 90 3.2 4.8 0.00 0.00 0.00 82 1013.5
20260510005111 25 34 0.0 0.0 0.00 0.00 0.00 83 1013.6
20260510004609 25 4 1.6 3.2 0.00 0.00 0.00 83 1013.5
20260510004107 25 71 3.2 4.8 0.00 0.00 0.00 83 1013.5
20260510003604 25 77 4.8 4.8 0.00 0.00 0.00 83 1013.1
20260510003059 25 84 0.0 0.0 0.00 0.00 0.00 83 1013.0
20260510002554 25 20 1.6 4.8 0.00 0.00 0.00 83 1013.0
20260510002051 25 86 3.2 4.8 0.00 0.00 0.00 83 1013.0
20260510001548 25 356 1.6 3.2 0.00 0.00 0.00 83 1013.1
20260510001048 25 11 6.4 9.7 0.00 0.00 0.00 83 1013.1
20260510000542 25 349 6.4 8.0 0.00 0.00 0.00 83 1012.7
20260510000039 25 359 6.4 8.0 0.00 0.00 0.00 83 1013.0
20260509235536 25 88 4.8 8.0 0.00 0.00 0.00 83 1012.7
20260509235033 26 358 11.3 12.9 0.00 0.00 0.00 83 1012.6
20260509234529 26 47 9.7 12.9 0.00 0.00 0.00 82 1012.8
20260509234027 26 344 3.2 4.8 0.00 0.00 0.00 82 1012.4
20260509233524 27 92 3.2 8.0 0.00 0.00 0.00 80 1012.2
20260509233021 27 342 6.4 8.0 0.00 0.00 0.00 74 1012.2
20260509232518 28 321 9.7 11.3 0.00 0.00 0.00 74 1012.1
20260509232014 28 28 8.0 11.3 0.00 0.00 0.00 74 1012.2
20260509231511 28 333 14.5 16.1 0.00 0.00 0.00 73 1012.1
20260509231008 28 350 12.9 16.1 0.00 0.00 0.00 73 1012.2
20260509230505 28 358 4.8 8.0 0.00 0.00 0.00 73 1012.1
20260509230002 28 321 8.0 11.3 0.00 0.00 0.00 73 1012.1
20260509225458 28 30 6.4 9.7 0.00 0.00 0.00 72 1012.1
20260509224953 28 28 11.3 14.5 0.00 0.00 0.00 72 1011.9
20260509224449 28 261 9.7 11.3 0.00 0.00 0.00 72 1011.9
20260509223946 29 55 4.8 4.8 0.00 0.00 0.00 70 1011.8
20260509223443 29 339 9.7 12.9 0.00 0.00 0.00 69 1011.9
20260509222940 29 7 9.7 11.3 0.00 0.00 0.00 69 1011.5
20260509222435 29 20 8.0 9.7 0.00 0.00 0.00 68 1011.7
20260509221931 30 336 11.3 12.9 0.00 0.00 0.00 68 1011.6
20260509221428 30 348 14.5 16.1 0.00 0.00 0.00 67 1011.4
20260509220924 30 51 3.2 4.8 0.00 0.00 0.00 67 1011.6
20260509220420 30 294 9.7 11.3 0.00 0.00 0.00 63 1011.6
20260509215916 31 348 9.7 14.5 0.00 0.00 0.00 62 1011.4
20260509215412 31 309 14.5 16.1 0.00 0.00 0.00 59 1011.3
20260509214910 31 294 6.4 9.7 0.00 0.00 0.00 58 1011.1
20260509214407 31 304 9.7 11.3 0.00 0.00 0.00 58 1011.2
20260509213904 31 14 6.4 9.7 0.00 0.00 0.00 58 1011.4
20260509213359 32 279 8.0 9.7 0.00 0.00 0.00 58 1011.2
20260509212857 32 280 11.3 14.5 0.00 0.00 0.00 56 1011.1
20260509212354 32 263 6.4 9.7 0.00 0.00 0.00 56 1010.9
20260509211850 32 273 3.2 3.2 0.00 0.00 0.00 56 1010.7
20260509211346 33 323 9.7 11.3 0.00 0.00 0.00 57 1010.9
20260509210843 32 336 4.8 8.0 0.00 0.00 0.00 57 1011.1
20260509210341 32 250 4.8 4.8 0.00 0.00 0.00 58 1010.6
20260509205840 32 283 6.4 8.0 0.00 0.00 0.00 59 1010.9
20260509205335 32 244 11.3 17.7 0.00 0.00 0.00 59 1010.9
20260509204832 32 313 11.3 14.5 0.00 0.00 0.00 60 1011.1
20260509204328 32 334 8.0 9.7 0.00 0.00 0.00 61 1011.0
20260509203824 32 294 9.7 11.3 0.00 0.00 0.00 59 1010.8
20260509203321 32 312 3.2 4.8 0.00 0.00 0.00 58 1011.1
20260509202817 32 298 4.8 8.0 0.00 0.00 0.00 57 1010.9
20260509202314 32 265 3.2 3.2 0.00 0.00 0.00 60 1010.8
20260509201813 32 320 4.8 4.8 0.00 0.00 0.00 61 1011.2
20260509201310 32 8 0.0 0.0 0.00 0.00 0.00 62 1010.9
20260509200806 31 267 4.8 4.8 0.00 0.00 0.00 66 1011.0
20260509200302 30 229 3.2 3.2 0.00 0.00 0.00 69 1011.2
20260509195758 30 187 3.2 3.2 0.00 0.00 0.00 73 1011.3
20260509195253 30 227 0.0 0.0 0.00 0.00 0.00 72 1011.2
20260509194748 29 228 3.2 3.2 0.00 0.00 0.00 73 1011.1
20260509194244 28 173 0.0 1.6 0.00 0.00 0.00 78 1011.1